This is the latest recevied weather packets stored in our database for station/object KB1FFS. If no packets are shown the sender has not sent any weather packets the latest 10 day(s).
| Time | Temp. | Humidity | Pressure | Rain* | Wind** | Luminosity | Snow |
|---|---|---|---|---|---|---|---|
| 1787946454 | 39.44° C | 30% | 1017.7 hPa | 0 mm | - | 740 W/m² | - |
| 1787946150 | 39.44° C | 31% | 1017.8 hPa | 0 mm | - | 744 W/m² | - |
| 1787945844 | 39.44° C | 31% | 1018 hPa | 0 mm | - | 748 W/m² | - |
| 1787945540 | 39.44° C | 32% | 1018.1 hPa | 0 mm | - | 754 W/m² | - |
| 1787945235 | 38.89° C | 33% | 1018 hPa | 0 mm | - | 762 W/m² | - |
| 1787944934 | 38.89° C | 32% | 1018.2 hPa | 0 mm | - | 744 W/m² | - |
| 1787944632 | 38.89° C | 32% | 1018.2 hPa | 0 mm | - | 788 W/m² | - |
| 1787944328 | 38.89° C | 32% | 1018.2 hPa | 0 mm | - | 788 W/m² | - |
| 1787944023 | 38.89° C | 32% | 1018.2 hPa | 0 mm | - | 788 W/m² | - |
| 1787943718 | 38.89° C | 32% | 1018.5 hPa | 0 mm | - | 772 W/m² | - |
| 1787943413 | 38.89° C | 32% | 1018.2 hPa | 0 mm | - | 772 W/m² | - |
| 1787943108 | 39.44° C | 34% | 1018.4 hPa | 0 mm | - | 777 W/m² | - |
| 1787942803 | 39.44° C | 34% | 1018.5 hPa | 0 mm | - | 791 W/m² | - |
| 1787942503 | 38.89° C | 34% | 1018.5 hPa | 0 mm | - | 797 W/m² | - |
| 1787942198 | 39.44° C | 34% | 1018.7 hPa | 0 mm | - | 803 W/m² | - |
| 1787941893 | 38.89° C | 34% | 1018.6 hPa | 0 mm | - | 781 W/m² | - |
| 1787941593 | 38.89° C | 36% | 1018.7 hPa | 0 mm | - | 779 W/m² | - |
| 1787941287 | 38.89° C | 36% | 1018.8 hPa | 0 mm | - | 772 W/m² | - |
| 1787940987 | 38.89° C | 37% | 1018.5 hPa | 0 mm | - | 770 W/m² | - |
| 1787940686 | 38.89° C | 35% | 1018.9 hPa | 0 mm | - | 764 W/m² | - |
| 1787940385 | 38.33° C | 35% | 1018.8 hPa | 0 mm | - | 776 W/m² | - |
| 1787940084 | 38.89° C | 34% | 1019.1 hPa | 0 mm | - | 746 W/m² | - |
| 1787939779 | 38.89° C | 34% | 1019.2 hPa | 0 mm | - | 746 W/m² | - |
| 1787939478 | 38.89° C | 36% | 1019 hPa | 0 mm | - | 758 W/m² | - |
| 1787939174 | 38.33° C | 36% | 1019.3 hPa | 0 mm | - | 745 W/m² | - |
* Rain latest hour (hover to see other rain measurements)
** Current wind speed in m/s (hover to see current wind gust speed)